Date,TemperatureHighF,TemperatureAvgF,TemperatureLowF,DewpointHighF,DewpointAvgF,DewpointLowF,HumidityHigh,HumidityAvg,HumidityLow,PressureMaxIn,PressureMinIn,WindSpeedMaxMPH,WindSpeedAvgMPH,GustSpeedMaxMPH,PrecipitationSumIn
2013-1-1,35.8,16.3,5.5,14.9,9.6,1.5,90,77,42,30.65,30.53,7,1,7,0.00
2013-1-2,18.9,10.8,1.4,14.1,6.5,-2.0,85,83,68,30.65,30.53,6,1,6,0.00
2013-1-3,34.2,17.4,-1.8,16.9,5.8,-6.0,86,63,40,30.53,30.39,8,1,8,0.00
2013-1-4,54.5,27.3,18.5,30.5,11.7,2.9,73,53,33,30.86,26.93,8,1,8,0.00
2013-1-5,30.7,24.1,15.4,24.1,15.7,9.2,84,71,47,30.77,30.68,6,1,6,0.00
2013-1-6,46.4,29.9,20.1,25.2,21.8,17.1,96,74,42,30.71,30.62,8,1,8,0.00
2013-1-7,48.9,40.7,28.6,34.4,28.5,22.6,78,63,51,30.68,30.56,0,0,0,0.00
2013-1-8,51.3,44.6,34.9,35.1,31.0,28.2,81,59,48,30.68,30.56,15,4,15,0.00
2013-1-9,47.3,37.7,24.3,34.9,25.0,16.9,85,61,47,30.56,30.33,21,4,21,0.00
2013-1-10,36.9,25.4,17.6,24.5,17.5,12.2,98,73,47,30.53,30.44,12,2,12,0.00
2013-1-11,29.3,19.9,6.3,14.4,8.7,-0.8,81,62,44,30.71,30.50,13,2,13,0.00
2013-1-12,31.5,10.4,-3.3,9.9,-1.2,-10.2,72,60,40,30.80,30.71,6,0,6,0.00
2013-1-13,33.4,10.8,-5.4,10.0,-4.3,-16.9,78,51,34,30.86,30.77,5,0,5,0.00
2013-1-14,42.1,19.4,2.3,18.8,4.1,-11.7,88,53,33,30.92,30.80,6,0,6,0.00
2013-1-15,50.7,25.5,10.2,24.8,15.0,8.6,93,69,36,31.06,30.92,6,1,6,0.00
2013-1-16,55.4,30.3,12.9,24.2,15.1,7.5,83,56,29,31.09,30.98,6,1,6,0.00
2013-1-17,52.0,31.9,20.7,23.0,15.2,10.4,64,51,31,31.01,30.86,9,1,9,0.00
2013-1-18,51.4,34.2,18.7,24.0,15.8,7.8,70,48,34,30.89,30.80,8,1,8,0.00
2013-1-19,56.1,29.3,19.2,24.4,15.1,11.4,72,58,29,30.89,26.96,5,1,5,0.00
2013-1-20,27.0,26.3,18.7,15.6,14.7,12.1,79,61,57,30.62,26.96,4,0,4,0.00
2013-1-21,53.4,29.7,14.7,21.4,13.1,5.4,68,52,28,30.53,30.39,8,1,8,0.00
2013-1-22,53.2,32.1,19.9,22.1,16.8,9.2,81,56,29,30.41,26.81,8,1,8,0.00
2013-1-23,56.1,39.9,28.4,33.6,23.9,14.6,87,54,34,30.33,30.09,10,1,11,0.00
2013-1-24,54.1,42.6,30.9,38.5,31.8,28.5,98,69,40,30.36,30.30,12,2,12,0.00
2013-1-25,48.0,41.6,37.0,43.5,36.9,34.1,98,84,61,30.36,30.15,11,2,11,0.04
2013-1-26,44.1,34.1,24.6,36.7,23.5,18.7,98,67,41,30.24,30.12,10,2,10,0.00
2013-1-27,43.0,30.6,19.6,26.3,20.2,14.6,98,68,39,30.27,30.21,10,1,10,0.00
2013-1-28,37.4,34.6,30.7,24.2,22.3,20.1,72,61,51,30.30,30.21,11,1,11,0.00
2013-1-29,47.8,39.3,34.9,29.9,26.3,22.7,75,60,48,30.56,30.30,15,3,15,0.00
2013-1-30,52.3,39.8,31.1,31.9,28.6,22.7,94,65,46,30.56,30.56,9,1,9,0.00
2013-1-31,52.0,36.3,25.5,36.7,28.5,24.9,98,77,41,30.56,30.47,10,1,10,0.00
2013-2-1,55.2,34.8,22.6,34.8,26.6,22.2,98,77,36,30.56,30.47,7,1,7,0.00
2013-2-2,53.8,34.0,20.7,39.2,26.5,20.0,98,78,39,30.59,30.47,6,0,6,0.00
2013-2-3,57.7,38.5,20.8,33.7,25.1,19.9,98,64,29,30.47,30.36,10,1,10,0.00
2013-2-4,54.0,41.1,31.5,27.3,25.0,19.7,78,55,33,30.36,30.18,7,0,7,0.00
2013-2-5,50.2,39.4,29.8,27.9,23.2,16.0,80,53,37,30.27,30.12,17,3,17,0.00
2013-2-6,49.5,39.3,31.1,25.4,21.7,18.8,71,50,37,30.30,30.12,11,3,11,0.00
2013-2-7,43.0,34.4,24.4,28.7,21.0,16.6,87,60,41,30.27,30.12,9,2,9,0.00
2013-2-8,39.9,28.7,17.1,28.7,18.5,12.9,98,69,39,30.36,30.27,16,2,16,0.00
2013-2-9,44.8,30.1,17.2,25.2,20.4,14.0,92,70,45,30.41,30.30,12,2,12,0.00
2013-2-10,46.8,32.8,21.4,30.7,21.3,14.3,98,67,37,30.44,30.39,10,1,10,0.00
2013-2-11,51.4,32.3,15.6,27.6,21.4,14.0,98,69,33,30.50,30.39,13,2,13,0.00
2013-2-12,51.4,36.8,24.1,32.7,24.9,19.7,98,66,38,30.59,30.50,16,2,16,0.00
2013-2-13,48.6,35.7,26.8,31.3,27.1,24.2,98,73,45,30.59,30.53,10,1,10,0.00
2013-2-14,55.0,36.3,19.8,37.7,27.7,19.3,98,76,39,30.65,30.59,10,1,10,0.00
2013-2-15,62.6,39.5,23.2,40.1,29.6,22.7,98,74,34,30.65,30.44,10,1,10,0.00
2013-2-16,56.3,39.3,24.4,31.6,24.5,17.3,98,59,34,30.47,30.33,16,3,16,0.00
2013-2-17,48.4,30.0,17.1,26.8,17.9,12.3,96,66,30,30.39,30.27,9,1,9,0.00
2013-2-18,41.5,30.0,19.4,23.1,18.7,15.6,90,66,40,30.27,29.97,12,2,12,0.00
2013-2-19,43.7,28.9,16.3,29.7,19.7,13.8,92,72,39,30.15,29.91,12,2,12,0.00
2013-2-20,45.3,31.0,18.5,24.2,19.9,15.8,98,67,37,30.24,30.15,12,2,12,0.00
2013-2-21,41.2,32.7,21.2,25.6,20.6,17.1,98,64,40,30.33,30.24,12,2,12,0.00
2013-2-22,45.9,36.9,26.8,33.3,25.3,20.8,95,64,45,30.33,30.09,21,5,21,0.00
2013-2-23,40.3,29.1,14.5,24.8,18.8,13.4,98,69,40,30.53,30.21,18,3,18,0.04
2013-2-24,50.4,32.4,13.6,27.8,19.7,11.5,98,64,37,30.56,30.27,11,1,11,0.00
2013-2-25,45.1,35.6,21.9,32.4,20.3,11.0,85,56,33,30.50,30.24,19,3,19,0.00
2013-2-26,49.8,33.0,15.6,19.4,15.6,11.8,95,55,27,30.53,30.41,9,1,9,0.00
2013-2-27,51.1,38.8,25.3,28.1,20.2,11.1,62,47,38,30.53,30.44,10,2,10,0.00
2013-2-28,57.4,46.7,36.9,37.0,33.8,22.8,78,61,45,30.65,30.44,14,4,14,0.00
2013-3-1,64.8,48.7,34.9,35.4,30.6,23.5,77,52,28,30.68,30.53,10,2,10,0.00
2013-3-2,57.7,44.9,35.2,32.8,29.4,24.4,76,56,35,30.53,30.30,11,1,11,0.00
2013-3-3,45.0,35.1,22.8,30.4,17.3,4.1,76,51,25,30.41,30.33,13,3,13,0.00
2013-3-4,55.6,32.6,10.8,21.5,14.9,8.2,92,54,26,30.41,30.21,10,2,10,0.00
2013-3-5,44.1,33.7,23.4,29.5,21.9,13.8,87,63,43,30.21,29.97,10,2,10,0.00
2013-3-6,41.9,34.2,27.7,37.3,27.3,19.0,98,78,48,30.21,29.82,18,2,18,0.04
2013-3-7,49.6,34.1,20.7,28.8,21.3,16.7,98,63,37,30.27,30.21,10,1,10,0.00
2013-3-8,47.5,32.7,22.8,34.9,25.1,19.3,98,77,40,30.36,30.21,15,2,15,0.05
2013-3-9,56.7,36.4,17.6,23.2,19.2,15.6,98,56,26,30.62,30.36,11,1,11,0.00
2013-3-10,62.1,41.0,18.0,33.4,24.0,13.8,87,56,24,30.65,30.53,15,2,15,0.00
2013-3-11,58.8,43.9,30.0,38.2,33.5,28.4,98,70,40,30.56,30.44,15,2,15,0.00
2013-3-12,67.3,45.7,30.2,41.0,31.4,24.3,98,65,24,30.47,30.33,9,1,9,0.00
2013-3-13,68.2,52.3,39.4,33.7,28.7,24.2,63,42,27,30.41,30.36,12,1,12,0.00
2013-3-14,70.5,51.3,35.1,34.4,26.7,19.0,69,42,22,30.41,30.30,15,3,15,0.00
2013-3-15,63.1,45.2,30.0,34.3,29.3,21.6,89,57,33,30.41,30.36,16,2,16,0.00
2013-3-16,55.9,39.3,26.8,35.4,27.1,22.5,98,67,35,30.39,30.18,17,3,17,0.00
2013-3-17,47.3,33.2,21.0,30.6,18.4,14.5,98,57,33,30.41,30.27,17,3,17,0.00
2013-3-18,55.2,33.7,12.7,24.6,16.3,7.7,94,56,19,30.44,30.33,11,2,11,0.00
2013-3-19,30.2,25.3,23.5,18.4,15.3,14.4,69,65,59,30.39,30.36,3,0,3,0.00
2013-3-25,42.3,41.9,41.5,24.3,24.1,23.8,49,49,48,30.24,30.21,9,4,9,0.00
2013-3-26,51.1,43.0,35.2,39.4,31.5,23.8,92,65,47,30.21,30.15,10,2,10,0.00
2013-3-27,59.7,43.1,29.3,45.2,36.0,28.6,98,80,38,30.24,30.12,12,1,12,0.25
2013-3-28,60.1,45.6,37.6,47.0,41.1,36.2,98,87,44,30.36,30.24,8,1,9,0.41
2013-3-29,63.0,50.9,37.9,47.8,39.8,36.0,98,71,40,30.44,30.36,8,2,8,0.00
2013-3-30,70.2,52.0,42.8,40.1,38.9,37.0,90,65,32,30.44,30.30,0,0,0,0.00
2013-3-31,66.7,53.1,37.0,42.3,36.4,31.2,95,58,34,30.33,30.15,0,0,0,0.00
2013-4-1,65.1,50.6,35.6,48.6,38.2,33.7,98,67,36,30.36,30.21,0,0,0,0.00
2013-4-2,66.4,50.1,29.5,46.8,35.0,29.0,98,62,34,30.41,30.33,0,0,0,0.00
2013-4-3,70.0,50.0,28.2,40.4,31.9,27.7,98,59,23,30.39,30.21,0,0,0,0.00
2013-4-4,66.0,52.6,44.4,38.3,35.0,31.8,72,52,34,30.21,30.03,0,0,0,0.00
2013-4-5,56.8,47.3,40.3,38.5,34.1,29.7,84,62,37,30.24,30.15,0,0,0,0.00
2013-4-6,56.1,46.5,39.9,37.3,32.4,26.2,87,60,36,30.21,30.06,0,0,0,0.00
2013-4-7,50.7,42.9,32.4,34.9,27.2,19.5,74,55,37,30.09,29.94,0,0,0,0.00
2013-4-8,47.7,37.1,25.2,25.2,22.5,19.4,84,57,40,30.41,30.09,0,0,0,0.00
2013-4-9,61.2,46.0,20.8,33.3,26.4,20.2,98,52,24,30.50,30.41,0,0,0,0.00
2013-4-10,64.2,49.7,31.8,42.6,32.9,26.4,87,55,35,30.47,30.33,0,0,0,0.00
2013-4-11,56.3,38.5,21.9,33.6,24.3,19.1,98,63,32,30.44,30.33,0,0,0,0.00
2013-4-12,64.9,35.8,21.0,31.4,22.7,18.0,94,66,23,30.36,30.09,14,1,14,0.00
2013-4-13,47.8,40.3,30.9,22.0,19.2,16.8,62,43,31,30.27,30.09,27,7,27,0.00
2013-4-14,46.9,34.3,21.6,28.1,18.9,14.6,96,55,38,30.27,30.06,15,3,15,0.00
2013-4-15,42.3,32.2,25.5,32.2,28.5,21.2,98,88,45,30.30,30.09,18,3,18,0.00
2013-4-16,44.6,34.7,27.1,33.2,26.8,18.5,98,76,38,30.53,30.30,23,4,23,0.09
2013-4-17,52.5,37.0,20.5,28.5,21.4,16.2,98,60,28,30.59,30.53,18,3,18,0.00
2013-4-18,63.0,45.2,25.7,35.8,29.0,20.8,88,57,34,30.59,30.47,14,2,14,0.00
2013-4-19,60.8,49.9,40.6,38.3,33.7,28.3,80,55,35,30.50,30.36,22,6,22,0.00
2013-4-20,59.4,47.8,42.3,32.5,30.3,27.0,68,53,30,30.47,30.41,13,4,13,0.00
2013-4-21,56.5,36.1,32.2,35.8,30.2,28.8,87,80,41,30.77,26.81,25,4,25,0.00
2013-4-22,55.4,44.1,31.5,34.2,24.0,11.6,84,48,28,30.92,30.77,17,5,17,0.00
2013-4-23,63.5,44.9,14.4,23.5,16.1,7.6,84,36,18,30.92,30.65,19,4,19,0.00
2013-4-24,70.2,47.4,20.3,27.3,18.5,7.7,67,35,17,30.83,30.59,15,2,15,0.00
2013-4-25,72.3,53.3,27.0,33.8,25.5,13.4,62,37,23,30.71,30.59,18,3,18,0.00
2013-4-26,78.4,57.7,33.1,39.3,31.0,25.9,89,42,18,30.83,30.71,17,2,17,0.00
2013-4-27,74.5,57.1,34.7,34.5,29.6,25.9,77,39,21,30.83,30.71,15,3,15,0.00
2013-4-28,63.7,51.4,33.8,33.5,28.7,24.0,72,43,27,30.74,30.62,17,4,17,0.00
2013-4-29,59.4,50.3,35.1,38.4,29.7,19.0,66,46,31,30.65,30.56,23,6,23,0.00
2013-4-30,52.9,37.1,20.1,22.8,19.2,14.2,87,52,30,30.89,30.62,18,4,18,0.00
2013-5-1,65.8,44.0,15.3,26.4,19.9,11.4,91,44,20,31.01,30.89,15,2,15,0.00
2013-5-2,77.9,55.4,25.7,27.2,22.0,15.1,71,31,15,31.03,30.77,15,2,15,0.00
2013-5-3,70.2,55.9,34.0,32.6,26.8,19.3,59,34,24,30.83,30.71,18,4,18,0.00
2013-5-4,68.2,53.7,30.6,34.4,28.6,23.0,78,41,26,30.74,30.53,23,6,23,0.00
2013-5-5,73.2,58.2,35.8,36.7,30.7,23.9,69,37,25,30.53,30.39,23,5,23,0.00
2013-5-6,78.1,62.4,39.4,41.2,33.7,27.0,70,36,22,30.47,30.36,15,3,15,0.00
2013-5-7,77.7,63.1,45.5,47.6,40.3,33.3,94,49,21,30.56,30.44,19,4,19,0.00
2013-5-8,79.9,63.0,43.7,46.3,41.1,34.3,93,50,21,30.68,30.56,16,3,16,0.00
2013-5-9,83.1,63.3,43.0,49.7,43.5,37.6,97,54,22,30.74,30.62,13,2,13,0.00
2013-5-10,90.0,70.4,44.6,47.4,42.8,35.6,96,42,19,30.77,30.68,11,2,11,0.00
2013-5-11,91.2,70.3,48.6,49.7,44.6,39.0,88,46,18,30.80,30.62,19,2,19,0.00
2013-5-12,88.2,68.7,52.3,53.7,45.1,38.6,95,48,20,30.71,30.59,19,3,19,0.00
2013-5-13,72.9,58.3,40.3,47.0,39.0,29.1,91,52,31,30.71,30.59,25,4,25,0.00
2013-5-14,69.1,51.3,29.1,38.8,33.0,28.6,98,56,28,30.74,30.59,15,3,15,0.00
2013-5-15,66.4,51.7,38.8,44.6,36.5,33.3,86,59,32,30.65,30.53,15,3,15,0.00
2013-5-16,64.4,49.1,35.1,45.2,38.7,33.8,98,72,36,30.59,30.47,13,2,13,0.04
2013-5-17,61.3,49.7,40.5,44.8,36.6,30.2,98,65,36,30.62,30.53,14,3,14,0.00
2013-5-18,60.8,46.1,28.4,44.0,33.3,27.5,98,65,37,30.80,30.62,17,3,17,0.04
2013-5-19,64.8,48.3,29.8,41.7,33.0,28.2,98,61,33,30.89,30.80,18,3,18,0.00
2013-5-20,79.3,56.1,27.3,41.2,33.5,26.8,98,52,20,30.86,30.50,18,2,18,0.00
2013-5-21,60.1,49.0,33.4,42.0,29.7,20.1,79,49,28,30.50,30.36,20,4,20,0.00
2013-5-22,51.8,40.7,32.5,27.8,23.3,18.5,61,50,38,30.53,30.50,19,5,19,0.00
2013-5-23,61.5,46.2,28.6,35.0,27.4,22.6,86,50,28,30.59,30.50,14,3,14,0.00
2013-5-24,59.7,48.3,37.2,32.3,29.5,26.2,78,50,31,30.62,30.53,17,4,17,0.00
2013-5-25,67.1,48.5,27.9,41.8,32.1,27.3,98,61,27,30.62,30.50,18,3,18,0.00
2013-5-26,63.5,51.5,39.6,47.5,39.1,32.6,98,67,35,30.62,30.53,13,2,13,0.04
2013-5-27,60.8,50.0,37.9,41.8,37.4,34.0,89,64,45,30.59,30.39,19,3,19,0.00
2013-5-28,67.1,55.1,37.9,41.1,34.3,29.4,95,48,27,30.47,30.36,16,3,16,0.00
2013-5-29,63.7,53.6,44.4,46.6,36.2,30.9,98,56,34,30.56,30.30,19,5,19,0.05
2013-5-30,62.8,52.0,31.3,35.5,31.1,27.0,97,47,33,30.74,30.56,15,5,15,0.00
2013-5-31,71.2,53.2,31.3,34.8,31.1,28.2,98,50,23,30.83,30.74,13,3,13,0.00
2013-6-1,77.4,60.8,40.5,42.6,35.8,31.1,75,43,23,30.80,30.59,17,4,17,0.00
2013-6-2,71.8,57.3,41.9,44.7,38.0,30.5,97,53,27,30.62,30.53,15,4,17,0.00
2013-6-3,76.6,58.1,34.9,37.9,32.7,25.1,96,46,21,30.65,30.56,24,3,24,0.00
2013-6-4,80.1,63.1,38.1,36.9,31.5,22.6,66,33,20,30.68,30.62,15,3,15,0.00
2013-6-5,88.3,70.0,46.8,42.9,38.3,33.0,63,34,19,30.68,30.56,15,3,15,0.00
2013-6-6,87.6,71.4,51.3,49.4,43.3,38.7,76,40,20,30.62,30.53,15,3,15,0.00
2013-6-7,84.9,68.0,48.0,52.3,43.9,40.5,96,47,23,30.68,30.59,20,4,20,0.00
2013-6-8,88.3,66.7,42.4,46.5,39.3,33.0,96,45,16,30.71,30.59,14,3,14,0.00
2013-6-9,84.9,66.0,46.2,43.7,36.5,27.2,75,38,19,30.62,30.47,20,4,20,0.00
2013-6-10,77.4,59.4,33.6,35.1,31.2,26.4,82,39,21,30.53,30.39,18,4,18,0.00
2013-6-11,65.1,52.0,35.4,39.2,32.9,28.8,94,51,33,30.65,30.47,21,4,21,0.00
2013-6-12,66.7,49.2,31.1,35.2,31.4,27.2,97,55,31,30.71,30.62,23,4,23,0.00
2013-6-13,60.4,46.9,29.8,43.6,32.5,28.1,96,61,35,30.80,30.68,18,3,18,0.03
2013-6-14,74.7,54.5,32.2,42.0,31.5,24.6,98,51,21,30.83,30.59,11,2,11,0.00
2013-6-15,84.7,66.7,42.8,43.6,37.5,26.9,62,37,18,30.59,30.44,17,4,17,0.20
2013-6-16,86.9,64.5,48.9,46.5,41.9,37.7,82,48,20,30.68,30.53,17,4,17,0.00
2013-6-17,81.0,61.9,42.3,47.1,41.4,37.2,97,53,23,30.68,30.47,15,3,15,0.00
2013-6-18,61.3,54.1,47.1,50.7,41.4,34.5,88,63,42,30.56,30.47,15,4,15,0.09
2013-6-19,61.7,49.4,40.3,48.3,38.3,32.2,98,69,39,30.65,30.50,17,2,17,0.25
2013-6-20,66.7,49.7,30.7,42.5,33.9,29.6,98,60,30,30.68,30.59,17,3,17,0.00
2013-6-21,62.4,51.8,38.7,43.5,37.1,33.6,94,60,37,30.71,30.68,15,3,15,0.00
2013-6-22,78.6,59.9,34.3,45.6,37.8,33.8,98,52,23,30.71,30.47,24,3,24,0.00
2013-6-23,64.2,58.4,53.4,57.9,51.5,40.9,98,79,47,30.50,30.33,5,1,6,0.53
2013-6-24,64.4,54.3,48.6,54.8,48.7,42.3,98,83,48,30.39,30.30,10,2,10,0.26
2013-6-25,67.3,58.0,50.4,51.6,45.4,38.5,98,65,44,30.50,30.36,16,2,16,0.04
2013-6-26,67.6,58.9,50.9,58.8,51.1,45.0,98,76,59,30.68,30.50,10,2,10,0.20
2013-6-27,86.7,67.7,47.5,55.4,49.7,46.0,98,60,28,30.77,30.68,13,3,15,0.00
2013-6-28,91.6,74.4,54.0,55.5,52.2,47.6,97,52,24,30.80,30.62,15,3,15,0.00
2013-6-29,88.5,74.8,60.4,57.2,52.6,46.8,83,50,28,30.71,30.59,15,4,15,0.00
2013-6-30,94.5,77.9,55.4,54.4,51.5,47.2,92,45,23,30.68,30.50,18,4,18,0.00
2013-7-1,97.3,81.8,65.7,59.7,52.3,47.8,70,38,21,30.68,30.56,18,3,18,0.00
2013-7-2,101.5,80.4,60.3,62.9,55.1,45.3,91,50,18,30.68,30.59,18,3,18,0.00
2013-7-3,90.3,83.0,63.9,54.9,46.2,36.1,45,28,23,30.68,30.59,17,6,18,0.00
2013-7-4,84.4,67.8,47.7,46.0,39.0,33.7,84,40,20,30.68,30.53,18,4,18,0.00
2013-7-5,78.6,61.9,40.6,47.6,35.3,24.2,98,43,22,30.59,30.47,16,4,16,0.00
2013-7-6,82.6,63.9,38.7,39.1,32.4,24.8,65,34,19,30.56,30.41,17,3,17,0.00
2013-7-7,87.8,70.0,48.2,48.5,41.8,35.8,76,41,19,30.53,30.41,18,4,18,0.00
2013-7-8,87.6,69.2,44.6,48.8,41.0,32.6,98,44,18,30.65,30.53,13,2,13,0.00
2013-7-9,96.1,75.2,51.4,47.6,42.6,39.4,67,35,16,30.71,30.56,16,3,16,0.00
2013-7-10,93.4,74.5,53.8,49.8,44.1,34.7,83,39,18,30.65,30.47,23,3,23,0.00
2013-7-11,82.6,67.6,48.9,44.1,38.4,26.2,75,38,22,30.59,30.47,19,4,19,0.00
2013-7-12,79.3,61.8,40.6,43.0,33.3,25.1,86,39,18,30.65,30.50,22,4,22,0.00
2013-7-13,70.7,53.0,41.5,36.0,31.3,24.5,75,49,22,30.68,26.75,11,1,11,0.00
2013-7-14,89.1,69.8,41.5,40.9,33.4,21.6,49,28,18,30.71,30.53,17,3,17,0.00
2013-7-15,87.4,70.9,50.9,42.9,38.2,30.5,67,34,19,30.62,30.44,19,4,19,0.00
2013-7-16,84.9,71.1,59.7,43.0,36.1,29.8,40,28,20,30.59,30.47,15,5,15,0.00
2013-7-17,90.7,72.6,47.3,43.7,38.0,34.5,69,32,15,30.74,30.56,18,4,18,0.00
2013-7-18,93.2,74.0,48.7,44.8,39.4,33.5,66,32,17,30.77,30.59,18,3,18,0.00
2013-7-19,93.0,75.1,51.8,44.1,36.5,28.1,63,29,13,30.71,30.56,15,4,15,0.00
2013-7-20,93.6,74.7,49.6,42.3,33.3,19.2,61,26,12,30.62,30.50,13,3,15,0.00
2013-7-21,97.0,72.1,41.9,39.4,30.9,19.4,63,25,11,30.56,30.44,19,3,19,0.00
2013-7-22,95.4,74.7,48.6,44.2,37.6,31.1,67,31,14,30.62,30.53,14,3,14,0.00
2013-7-23,96.4,82.1,48.0,43.6,38.6,32.7,64,24,14,30.65,30.53,17,4,17,0.00
2013-7-24,94.6,78.4,59.0,44.7,38.5,31.6,49,26,13,30.65,26.75,14,2,14,0.00
2013-7-25,97.3,76.6,49.5,47.4,38.7,28.2,71,31,13,30.68,30.59,17,3,17,0.00
2013-7-26,95.0,78.2,55.6,42.7,33.4,24.0,34,21,12,30.71,30.59,18,4,18,0.00
2013-7-27,87.8,69.8,48.4,39.9,34.0,24.8,48,29,16,30.71,30.53,18,3,18,0.00
2013-7-28,84.6,65.0,37.9,41.1,35.2,31.5,87,38,19,30.59,30.47,18,3,18,0.00
2013-7-29,84.2,65.7,41.2,43.1,38.1,33.9,88,42,19,30.62,30.47,14,2,14,0.00
2013-7-30,87.6,68.3,42.1,44.5,38.7,31.8,86,41,16,30.71,30.59,14,3,16,0.00
2013-7-31,81.9,66.9,55.4,48.1,40.9,34.4,73,41,21,30.68,30.56,23,2,23,0.00
2013-8-1,76.6,60.5,49.6,56.7,46.3,40.1,93,61,32,30.65,30.56,13,2,13,0.04
2013-8-2,77.9,58.9,37.8,50.9,39.6,33.7,98,56,22,30.68,30.59,13,2,13,0.00
2013-8-3,51.4,50.4,48.9,40.3,38.7,36.7,70,64,57,30.68,30.65,4,1,4,0.00
2013-8-4,90.7,79.6,48.9,46.6,40.7,35.5,70,26,19,30.65,26.75,15,4,15,0.00
2013-8-5,89.6,73.1,55.4,48.0,42.6,37.3,61,36,19,30.62,30.53,15,3,15,0.00
2013-8-6,94.5,73.5,49.8,48.1,41.8,35.0,83,38,17,30.65,30.50,17,3,17,0.00
2013-8-7,86.4,70.1,52.7,43.7,39.1,36.2,59,35,19,30.62,30.56,21,2,21,0.00
2013-8-8,85.1,70.7,54.3,45.1,41.2,37.1,63,37,20,30.62,30.50,13,2,13,0.00
2013-8-9,87.6,67.9,54.5,59.7,45.7,39.7,86,48,22,30.59,30.47,13,2,13,0.13
2013-8-10,79.9,59.6,43.0,53.3,47.0,42.3,98,69,31,30.65,30.53,14,2,14,0.12
2013-8-11,79.2,63.5,46.2,49.5,44.5,40.2,96,56,27,30.68,30.56,14,3,14,0.00
2013-8-12,86.0,65.5,49.1,64.4,47.6,40.7,95,58,22,30.65,30.53,13,2,13,0.12
2013-8-13,90.1,69.5,47.1,51.4,45.2,38.8,94,49,18,30.68,30.53,16,2,16,0.00
2013-8-14,91.9,72.7,55.6,47.2,43.6,39.6,65,39,18,30.62,30.50,15,3,15,0.00
2013-8-15,92.1,70.3,48.6,52.8,45.5,41.0,91,47,18,30.62,30.50,22,3,22,0.00
2013-8-16,87.1,69.1,53.2,58.6,50.4,47.6,88,55,28,30.65,30.56,15,2,15,0.00
2013-8-17,84.7,68.9,51.4,56.7,48.9,42.6,98,55,29,30.68,30.56,18,3,18,0.00
2013-8-18,88.5,72.4,46.4,53.5,45.3,39.8,98,44,20,30.74,30.62,16,3,16,0.00
2013-8-19,90.0,69.9,48.4,51.8,44.9,40.3,93,47,19,30.71,30.59,18,3,18,0.00
2013-8-20,84.6,67.4,47.8,46.6,37.4,25.3,86,41,14,30.71,30.56,13,3,13,0.00
2013-8-21,85.8,69.2,50.9,41.9,34.0,26.7,41,28,19,30.65,30.53,12,3,12,0.00
2013-8-22,84.2,65.1,55.9,57.2,44.1,30.5,83,49,26,30.59,30.53,17,2,17,0.05
2013-8-23,83.3,65.9,46.8,57.0,47.2,41.7,98,58,26,30.56,30.41,17,3,17,0.16
2013-8-24,78.4,61.6,47.5,58.3,50.2,41.8,98,73,30,30.50,30.39,18,2,18,0.09
2013-8-25,72.9,57.9,49.5,61.0,52.6,46.2,98,85,41,30.56,30.44,12,1,12,0.45
2013-8-26,78.3,60.9,47.5,56.6,47.0,41.0,98,67,30,30.59,30.50,13,2,13,0.04
2013-8-27,87.1,64.6,44.8,51.2,45.7,38.6,98,59,21,30.59,30.39,13,2,13,0.03
2013-8-28,89.2,69.1,49.1,54.2,46.4,38.3,98,52,19,30.53,30.44,13,2,13,0.03
2013-8-29,83.7,68.5,55.2,54.3,48.0,39.1,90,54,23,30.68,30.53,15,2,15,0.03
2013-8-30,84.2,66.9,47.7,55.8,47.7,40.8,98,57,24,30.74,30.59,14,3,14,0.03
2013-8-31,91.4,69.4,49.1,52.4,48.0,43.4,98,54,21,30.68,30.47,15,2,15,0.03
2013-9-1,94.5,72.5,51.4,50.7,43.2,31.0,80,42,11,30.53,30.39,13,2,13,0.03
2013-9-2,87.6,66.9,49.5,51.8,47.2,37.8,96,56,19,30.56,30.41,18,2,18,0.03
2013-9-3,85.1,63.9,45.9,57.0,46.0,36.9,98,60,19,30.59,30.50,13,3,13,0.03
2013-9-4,85.6,63.8,43.5,53.2,44.3,37.3,98,57,20,30.62,30.53,17,2,17,0.03
2013-9-5,76.1,58.4,47.7,50.2,44.3,35.6,96,64,32,30.65,30.50,18,2,18,0.03
2013-9-6,72.1,59.6,48.6,46.7,43.0,39.3,90,57,34,30.74,30.65,16,4,16,0.03
2013-9-7,80.2,60.8,38.3,51.8,43.4,37.8,98,60,27,30.71,30.56,14,2,14,0.00
2013-9-8,75.4,61.8,47.1,48.2,44.1,37.9,95,57,32,30.68,30.62,16,3,16,0.03
2013-9-9,83.8,64.8,41.7,44.9,39.9,34.5,96,47,20,30.68,30.56,15,2,15,0.03
2013-9-10,85.8,67.4,43.5,45.6,40.9,37.4,87,43,21,30.62,30.50,19,3,19,0.03
2013-9-11,88.9,69.5,46.8,46.8,42.0,37.4,84,41,20,30.65,30.56,15,3,15,0.03
2013-9-12,90.1,72.5,50.2,47.6,41.6,36.0,70,37,19,30.65,30.50,13,3,13,0.03
2013-9-13,82.4,69.0,54.7,46.4,40.1,35.0,65,37,23,30.56,30.44,12,2,12,0.00
2013-9-14,90.3,70.8,48.2,48.3,44.9,38.8,90,46,20,30.50,30.39,14,2,14,0.00
2013-9-15,91.2,68.6,51.4,48.2,42.9,34.8,76,45,15,30.47,30.30,15,2,15,0.00
2013-9-16,71.6,58.3,44.8,44.9,41.1,37.3,93,56,34,30.56,30.47,13,3,13,0.00
2013-9-17,61.3,51.6,45.3,51.6,42.5,35.9,90,72,48,30.59,30.41,20,2,20,0.08
2013-9-18,68.4,52.3,39.2,41.6,35.2,27.3,97,58,27,30.68,30.59,11,2,11,0.00
2013-9-19,82.4,57.3,30.7,39.1,33.4,27.5,98,50,19,30.65,30.41,10,2,10,0.00
2013-9-20,81.1,57.6,36.1,43.8,35.1,29.9,86,48,17,30.47,30.24,17,3,17,0.00
2013-9-21,67.3,53.7,41.2,49.5,38.5,33.1,98,60,33,30.39,30.30,12,2,12,0.09
2013-9-22,62.6,50.8,36.5,45.3,38.8,33.5,98,67,40,30.44,30.36,17,4,17,0.00
2013-9-23,64.4,55.7,48.0,40.3,37.2,32.8,74,51,35,30.56,30.44,17,4,17,0.00
2013-9-24,52.7,46.9,39.7,47.0,39.8,32.7,96,77,47,30.56,30.41,13,2,13,0.08
2013-9-25,53.6,42.9,34.3,40.3,35.3,29.3,98,77,44,30.56,30.41,15,2,15,0.09
2013-9-26,55.6,41.7,28.6,38.0,32.1,27.7,98,73,38,30.71,30.56,15,2,15,0.00
2013-9-27,66.9,46.2,25.9,42.0,33.4,25.4,98,67,26,30.74,30.59,13,3,13,0.00
2013-9-28,65.8,57.7,47.3,50.0,42.0,36.2,96,58,37,30.59,30.27,21,6,21,0.24
2013-9-29,52.9,47.5,42.6,49.7,41.6,33.5,98,81,56,30.39,30.18,17,5,17,0.54
2013-9-30,54.5,46.6,38.8,50.0,33.1,26.7,96,61,41,30.59,30.21,17,5,17,0.17
2013-10-1,52.3,43.1,27.9,37.5,30.8,25.2,98,63,41,30.74,30.56,13,4,13,0.00
2013-10-2,51.6,37.3,22.8,37.8,27.8,22.3,98,73,38,30.74,30.56,15,2,15,0.04
2013-10-3,53.6,39.2,29.7,37.0,30.9,26.9,98,76,40,30.95,30.68,11,2,11,0.00
2013-10-4,63.0,42.3,23.5,38.7,29.0,23.1,98,66,27,31.01,30.89,10,1,10,0.00
2013-10-5,78.1,48.2,26.2,33.8,29.2,25.1,98,58,18,30.95,30.77,9,1,9,0.00
2013-10-6,78.8,52.6,29.8,34.6,29.2,20.5,83,46,20,30.80,30.56,11,2,11,0.00
2013-10-7,59.4,48.6,34.3,35.9,28.6,22.2,85,47,31,30.65,30.56,18,3,18,0.00
2013-10-8,51.1,40.0,28.9,41.1,32.9,27.2,98,79,42,30.68,30.50,9,1,9,0.04
2013-10-9,45.9,39.2,31.8,35.3,33.1,30.5,98,80,57,30.59,30.53,13,3,13,0.00
2013-10-10,60.3,43.2,29.3,37.6,30.8,26.8,98,66,35,30.62,30.50,15,2,15,0.00
2013-10-11,55.8,41.3,26.6,38.2,30.7,26.1,98,71,38,30.65,30.59,9,1,9,0.00
2013-10-12,48.9,39.9,32.2,37.8,32.8,28.6,98,78,48,30.68,30.59,10,2,10,0.00
2013-10-13,45.0,39.1,32.7,39.1,35.3,30.6,97,87,62,30.83,30.68,6,1,6,0.00
2013-10-14,56.8,40.4,25.0,42.3,28.5,23.0,98,68,36,30.89,30.83,13,2,13,0.00
2013-10-15,65.1,40.7,20.5,35.7,26.0,19.3,98,63,25,30.92,30.71,9,1,9,0.00
2013-10-16,65.8,43.9,25.7,30.9,25.2,19.3,85,53,25,30.74,30.65,10,2,10,0.00
2013-10-17,63.1,43.9,25.0,37.4,29.3,24.4,98,61,31,30.80,30.74,10,1,10,0.00
2013-10-18,68.7,44.3,24.3,38.3,30.7,21.5,98,65,27,30.83,30.71,8,1,8,0.00
2013-10-19,76.5,48.6,23.9,34.6,28.8,23.2,98,57,20,30.74,30.65,10,1,10,0.00
2013-10-20,72.9,50.4,28.9,36.1,29.3,22.2,86,48,24,30.77,30.68,10,1,10,0.00
2013-10-21,73.6,49.2,27.9,38.0,31.8,25.9,98,58,24,30.77,30.65,11,1,11,0.00
2013-10-22,72.7,49.0,28.6,39.0,33.2,27.9,98,62,25,30.74,30.62,10,1,10,0.00
2013-10-23,69.8,48.1,28.8,42.6,33.5,28.3,98,63,28,30.68,30.59,9,1,10,0.00
2013-10-24,72.1,47.7,28.6,46.7,34.7,27.9,98,67,29,30.71,30.59,9,1,9,0.00
2013-10-25,75.4,48.5,28.6,41.1,31.7,0.0,98,60,22,30.83,30.71,11,1,11,0.00
2013-10-26,73.2,46.8,27.1,36.4,31.0,24.0,98,60,23,30.83,30.65,9,1,10,0.00
2013-10-27,55.2,39.0,27.5,43.7,34.8,27.0,98,87,39,30.68,30.36,16,3,16,0.12
2013-10-28,40.8,35.0,30.6,40.3,26.2,17.0,98,72,50,30.50,30.36,18,7,18,0.00
2013-10-29,49.5,33.6,20.3,23.6,18.9,15.1,86,57,36,30.59,30.50,8,1,8,0.00
2013-10-30,59.2,36.5,19.8,30.7,24.0,18.6,98,67,30,30.71,30.59,9,1,9,0.00
2013-10-31,61.9,46.7,31.1,43.4,37.0,27.5,97,71,45,30.80,30.71,11,2,11,0.00
2013-11-1,61.5,44.4,28.0,45.0,36.7,27.5,98,78,38,30.83,30.53,9,1,9,0.00
2013-11-2,51.8,42.7,30.4,42.2,30.3,21.4,93,63,39,30.62,30.36,18,3,18,0.00
2013-11-3,45.5,35.7,23.2,30.1,24.0,18.7,97,64,39,30.65,30.56,14,2,14,0.00
2013-11-4,48.9,39.8,33.6,28.9,26.0,23.2,75,59,39,30.71,30.62,13,2,13,0.00
2013-11-5,53.1,43.8,35.1,41.8,36.2,27.3,97,76,53,30.80,30.65,14,2,14,0.00
2013-11-6,60.3,46.3,33.6,48.1,40.3,33.1,98,82,46,30.83,30.71,11,1,11,0.00
2013-11-7,49.5,42.5,29.1,45.6,35.8,23.9,97,78,53,30.71,30.47,25,2,25,0.05
2013-11-8,47.7,38.7,28.6,31.4,27.1,24.7,97,65,42,30.71,30.65,13,2,13,0.05
2013-11-9,54.1,37.2,23.5,34.8,29.1,23.1,98,77,38,30.68,30.59,7,1,7,0.05
2013-11-10,68.0,44.5,30.4,41.5,34.6,29.9,98,74,32,30.74,30.62,8,1,8,0.05
2013-11-11,42.1,37.5,29.3,39.2,35.2,28.8,98,92,76,30.83,30.71,8,1,8,0.05
2013-11-12,62.1,45.3,36.0,43.7,37.9,32.5,98,79,39,30.92,30.74,13,1,13,0.05
2013-11-13,59.9,39.7,26.1,49.3,30.3,22.3,98,75,31,30.95,30.80,5,1,6,0.05
2013-11-14,46.6,33.0,21.7,25.1,22.6,17.9,97,68,41,30.80,30.59,15,2,15,0.00
2013-11-15,46.4,31.9,14.0,27.5,20.9,13.3,98,68,39,30.59,30.18,17,2,17,0.00
2013-11-16,45.5,40.0,34.7,28.8,25.0,22.6,68,55,40,30.41,30.12,21,4,21,0.00
2013-11-17,50.5,40.4,30.9,29.7,25.0,0.0,79,55,3,30.56,30.41,16,4,16,0.00
2013-11-18,52.2,43.0,32.7,34.7,27.5,20.5,69,55,39,30.56,30.39,16,2,16,0.00
2013-11-19,45.5,44.1,42.3,35.0,34.6,33.7,72,69,65,30.39,30.39,18,5,18,0.00